Theta_e
330 331 337 344 345 342 338 338 338 342 346 348 348 347 348 347 347 347 345 343 341 337 335 334 332 328 324 322 321 320 318 317 323 336 341 342 343 342 342 342 337 338 340
327 329 334 341 344 340 337 336 335 336 337 340 342 341 341 343 347 345 341 338 334 332 330 328 325 320 315 314 313 312 312 314 319 325 331 338 341 342 342 340 340 338 340
325 329 334 336 339 336 334 334 333 333 333 335 335 336 335 335 335 334 333 332 329 325 320 317 314 314 312 311 310 310 309 309 312 319 325 334 335 338 341 341 339 339 337
323 327 331 334 332 332 329 330 330 330 331 331 329 330 330 330 329 329 327 324 320 316 315 314 313 312 312 312 313 313 312 311 310 312 320 335 337 335 335 338 338 338 337
323 327 331 333 327 328 327 326 327 327 328 327 327 328 327 327 325 324 321 318 316 315 315 314 314 315 315 317 316 316 315 315 327 332 331 328 325 334 331 334 337 338 338
324 325 329 332 326 324 323 325 325 324 325 325 326 325 325 325 323 320 318 316 316 316 314 315 316 317 317 318 319 321 319 323 332 335 335 334 329 328 332 332 333 335 337
329 325 329 333 326 324 322 325 323 323 323 323 323 324 324 323 322 319 317 316 316 315 314 315 316 318 318 319 322 325 324 327 330 335 336 337 336 328 333 329 331 330 333
330 326 328 336 326 323 324 323 322 322 322 321 322 323 323 322 321 319 317 316 316 316 315 315 316 318 320 321 322 324 326 327 330 333 335 337 336 336 333 329 330 330 328
332 331 333 335 325 325 325 324 322 322 321 321 321 321 321 321 321 321 318 316 316 316 315 316 317 318 320 321 323 323 325 326 328 328 329 330 335 337 334 330 327 328 328
334 332 332 339 333 325 325 324 324 322 321 321 321 321 321 321 322 322 321 317 316 316 316 316 317 318 320 320 322 324 324 327 328 328 325 326 329 334 335 332 328 327 323
335 335 331 337 330 325 324 325 326 327 325 324 324 324 323 325 325 326 323 320 317 316 316 315 316 317 319 322 323 324 324 326 327 327 327 327 328 331 334 334 331 328 328
334 334 331 332 326 325 322 325 325 329 329 329 328 327 328 326 325 326 325 324 320 317 317 316 315 317 321 323 324 324 324 325 327 329 331 329 332 333 334 334 334 332 330
331 331 330 329 327 322 321 323 324 328 329 328 328 329 332 332 330 330 326 325 323 319 318 317 316 316 319 322 323 325 324 325 327 327 331 333 333 334 334 335 335 333 330
332 331 333 331 329 324 322 322 323 324 327 328 330 332 331 330 332 330 327 326 323 320 319 318 317 317 317 319 321 323 325 326 326 326 327 335 336 335 335 335 335 333 331
335 335 332 334 329 323 322 321 322 324 322 324 326 325 329 329 328 327 325 325 323 319 320 319 319 318 318 318 320 321 323 325 326 325 324 331 337 337 335 334 334 333 332
338 334 330 331 329 324 322 323 320 321 320 320 320 321 323 322 322 323 323 322 321 319 320 321 319 319 319 319 319 320 321 322 324 325 325 330 337 336 335 334 333 333 332
341 340 330 328 329 326 324 321 323 321 322 321 320 321 320 321 321 321 322 321 321 319 320 323 322 322 322 322 322 323 323 323 324 324 323 327 337 336 335 334 334 333 333
338 344 343 337 333 330 325 322 322 322 322 323 324 323 325 324 323 324 324 323 323 322 322 323 323 323 324 324 325 326 327 328 328 328 327 329 335 338 336 335 334 334 333
335 341 346 347 344 339 335 331 326 330 327 334 333 334 339 333 329 327 326 326 327 328 328 328 327 325 325 326 327 328 330 331 332 332 331 335 337 338 336 335 333 328 334
319 331 337 340 348 347 344 341 340 340 339 337 336 335 336 339 336 334 335 334 334 334 333 333 331 330 328 328 329 330 332 334 334 334 335 336 339 339 336 332 330 332 334
316 320 326 333 337 347 341 337 337 337 337 337 337 337 340 341 339 339 338 339 339 337 338 337 334 331 331 331 331 333 334 334 335 335 337 340 339 338 337 335 334 333 334
314 317 321 325 331 334 342 340 339 338 337 338 340 342 342 342 342 341 342 342 341 339 337 337 335 332 332 332 333 332 337 335 335 336 339 339 339 338 337 335 334 334 332
312 313 315 318 323 329 333 336 340 342 342 341 341 342 343 344 343 343 344 344 343 341 340 339 337 335 333 333 333 335 336 339 330 331 335 337 337 337 335 334 334 334 333
314 314 314 315 317 319 325 332 338 341 342 339 338 341 342 344 344 344 346 345 343 343 342 340 339 337 334 334 333 334 335 333 335 334 330 331 332 332 332 333 333 332 332
314 316 316 315 315 317 320 324 329 336 337 336 339 342 343 342 342 343 343 342 343 344 344 342 340 337 335 335 335 335 334 333 332 331 334 331 330 331 332 332 331 331 331
313 316 316 319 319 317 322 324 326 334 336 339 340 341 342 340 341 341 339 341 340 341 342 341 340 339 338 336 336 337 336 335 333 331 334 329 329 328 329 330 329 329 328
Wind_Speed
28 38 38 38 35 33 33 34 33 33 32 30 29 27 25 23 23 21 19 17 15 12 12 10 9 7 6 6 5 5 5 5 6 7 8 8 7 7 7 6 6 7 8
39 43 42 41 38 35 33 32 33 32 31 29 28 26 24 24 23 21 19 17 15 13 12 10 9 8 7 6 6 6 5 5 6 6 7 7 7 6 5 4 4 5 7
41 45 44 44 40 36 34 33 33 32 30 28 27 26 25 24 23 21 18 16 15 13 12 11 10 8 7 7 6 6 6 6 6 6 6 7 6 6 4 3 5 5 7
48 48 47 46 43 39 37 35 33 32 30 29 27 26 24 23 22 20 19 17 15 13 12 11 10 9 8 8 7 7 7 7 8 7 6 5 4 3 4 4 4 5 7
50 48 47 47 45 42 39 37 35 32 31 29 28 27 24 23 22 21 19 17 14 12 11 10 9 9 9 8 7 7 7 8 7 5 4 2 3 3 2 3 3 4 5
52 49 47 47 46 44 41 38 35 33 31 29 28 26 25 24 22 20 18 16 14 12 11 10 9 8 8 8 7 6 6 6 6 5 3 2 0 4 3 2 2 4 5
50 48 47 46 44 44 42 40 37 34 32 31 29 27 25 24 22 20 18 15 14 13 11 10 9 9 8 8 7 7 6 5 4 4 2 0 1 6 6 4 1 3 5
46 46 45 44 43 42 42 40 38 36 33 31 30 28 25 23 22 20 18 16 14 13 12 12 11 9 9 8 7 7 6 6 6 5 5 5 5 8 8 7 6 4 5
42 42 42 42 42 40 39 38 37 35 34 32 30 28 26 24 22 21 19 17 16 14 12 12 12 11 10 9 9 8 7 7 7 7 7 7 6 6 10 9 8 7 6
36 39 40 38 40 41 39 37 36 34 33 31 30 28 26 24 23 21 19 17 16 15 14 13 12 11 11 11 10 9 8 8 8 6 7 8 10 8 9 10 10 8 7
29 35 39 38 40 40 39 37 35 33 32 30 28 27 25 25 24 22 20 18 17 16 14 15 14 13 13 12 12 10 10 9 8 7 7 7 9 10 11 10 11 10 9
30 35 39 40 41 40 38 36 35 33 32 31 30 29 28 28 26 24 21 20 19 17 16 16 16 15 15 15 14 13 13 12 11 8 8 6 7 9 10 11 10 10 10
41 37 41 41 42 41 39 36 34 33 31 31 30 29 28 27 24 24 23 23 22 20 21 20 20 20 19 18 17 16 15 14 13 11 8 8 8 9 9 11 10 11 12
29 39 38 43 42 40 38 36 34 33 31 30 30 28 29 27 25 26 25 25 24 22 23 23 23 22 21 21 20 19 18 17 15 14 13 10 10 12 11 10 12 12 13
23 27 38 40 41 41 38 36 35 33 33 32 31 30 31 28 28 28 28 27 26 24 26 25 24 24 23 23 23 22 21 20 18 16 16 14 12 13 12 10 13 13 14
28 36 37 38 41 41 40 38 38 35 34 34 35 34 32 33 31 31 32 31 29 27 27 27 25 26 25 24 25 25 23 23 20 19 17 15 14 12 13 12 14 14 15
30 33 34 41 45 42 42 40 39 37 38 37 37 36 36 36 34 34 35 33 33 27 29 28 26 26 27 25 26 26 24 22 21 20 19 17 16 13 12 13 15 17 15
26 27 32 38 41 42 43 42 42 43 42 36 35 38 36 38 36 35 35 35 33 27 28 28 28 27 28 25 26 25 23 20 20 19 17 18 18 17 16 17 17 17 19
21 25 25 29 33 38 41 35 39 32 39 31 40 31 30 35 32 32 32 34 30 26 28 26 27 26 28 26 25 23 21 18 17 16 17 17 18 18 17 18 19 19 21
22 25 27 26 32 34 35 31 30 32 36 33 36 32 39 38 32 28 31 31 26 26 26 26 27 25 26 23 20 20 19 17 15 14 15 17 21 19 19 21 19 17 20
20 21 26 33 33 34 32 28 29 32 35 35 33 34 36 35 30 28 28 28 27 30 27 27 26 25 25 20 12 11 18 18 16 14 17 20 21 20 21 21 20 19 18
24 21 23 28 37 39 38 40 34 27 31 37 33 34 34 32 28 26 28 29 29 30 28 26 26 20 22 19 7 3 1 2 11 16 17 18 19 20 21 23 21 18 18
20 22 21 25 29 34 37 38 29 30 27 28 32 37 38 32 30 27 29 29 30 29 29 28 28 27 17 19 23 6 2 3 0 1 8 13 16 19 20 18 19 18 18
20 21 21 19 24 33 36 33 33 27 21 27 35 36 40 32 28 32 33 30 30 29 29 28 26 26 22 17 18 26 13 4 2 1 4 6 7 8 8 8 10 13 14
20 21 20 18 21 24 32 37 34 32 30 33 33 34 31 27 33 34 32 31 31 31 30 28 25 24 25 20 19 10 15 9 5 2 2 3 8 8 7 8 9 11 13
21 19 18 18 16 19 26 28 33 34 32 30 32 32 31 34 31 30 30 28 29 29 29 27 25 23 23 26 25 18 15 7 7 4 2 2 3 4 7 8 10 12 13
Wind_Direction
174 175 168 164 166 161 156 153 151 150 149 151 151 150 152 153 157 158 158 157 157 158 153 156 157 155 152 148 147 145 143 134 127 118 110 106 103 102 108 100 98 114 127
171 175 167 165 167 164 160 156 153 153 152 153 153 153 154 154 159 161 161 161 160 161 159 161 162 162 156 149 141 133 131 129 122 118 119 123 119 124 136 119 116 124 134
173 175 168 165 168 166 163 161 157 155 154 155 154 156 157 158 161 162 161 161 161 161 159 161 157 151 143 134 124 119 118 123 129 127 124 120 114 119 122 124 144 147 149
173 174 170 168 166 168 166 164 161 158 158 158 158 160 161 161 162 163 162 163 161 159 156 155 149 144 138 133 129 122 119 120 118 124 136 148 141 125 123 137 158 162 163
172 175 172 171 167 167 168 167 164 162 162 162 162 164 164 166 167 166 166 165 162 160 157 153 150 144 140 137 136 132 130 134 131 121 122 163 203 178 168 154 167 187 180
173 176 175 175 170 168 169 169 167 167 167 166 167 169 170 173 173 172 171 169 166 168 166 164 159 157 153 151 146 140 146 153 138 141 124 68 144 214 215 216 201 199 200
172 176 178 178 176 171 171 172 171 172 173 171 173 175 178 178 180 178 177 178 177 177 175 176 176 177 172 170 167 166 169 178 182 193 205 268 349 220 221 213 253 244 216
172 176 180 183 181 176 176 175 176 177 178 178 179 182 184 186 187 186 186 187 190 189 189 184 189 193 191 188 189 191 194 206 225 232 243 259 301 235 227 229 233 261 252
176 178 182 185 185 183 181 181 182 183 185 186 187 189 191 194 196 195 195 196 198 200 203 202 201 200 204 206 206 206 211 225 241 248 261 253 262 249 229 240 247 250 259
177 180 185 190 189 188 187 188 189 191 192 194 195 197 199 201 202 205 203 205 208 209 210 217 216 216 219 220 222 223 224 233 250 262 270 257 253 260 231 237 255 266 260
181 186 189 195 193 192 191 194 195 198 201 202 203 206 206 208 209 211 212 214 216 221 224 228 230 231 233 233 232 236 243 249 256 266 273 279 270 250 251 236 245 261 278
191 194 195 198 198 197 196 198 200 203 206 209 210 212 214 215 216 218 217 222 224 228 231 237 239 240 239 239 242 243 247 256 264 270 283 274 261 266 257 238 241 260 274
197 197 201 201 203 200 201 202 206 208 213 215 218 219 223 226 223 224 224 227 230 231 235 234 239 237 243 244 245 249 252 256 264 270 269 265 269 267 266 244 243 253 268
205 204 208 206 205 202 204 205 210 213 218 224 224 227 229 231 233 233 233 232 235 237 240 239 242 244 245 250 251 253 256 258 262 269 270 267 270 275 276 245 241 251 260
220 212 210 212 209 205 207 209 213 219 219 227 231 232 237 235 236 241 241 240 240 243 245 245 246 248 249 251 255 255 258 261 262 264 269 262 268 271 274 246 245 252 263
211 220 211 222 216 212 210 214 216 221 224 228 234 236 239 243 241 242 245 245 245 247 251 251 252 255 256 256 259 260 261 264 264 264 265 263 260 269 255 244 236 247 259
220 225 215 222 222 218 217 218 224 224 229 230 235 240 241 244 246 245 247 248 247 250 253 252 253 257 258 257 259 260 262 266 267 266 261 259 256 259 244 246 236 247 250
230 220 224 216 220 224 225 221 227 230 231 232 243 245 249 249 247 247 249 252 252 252 253 253 253 254 255 255 259 260 262 265 269 268 261 254 248 253 242 230 229 249 249
253 226 221 221 221 223 225 227 223 232 234 224 236 247 264 252 249 248 254 255 253 252 250 250 251 247 253 254 258 264 266 266 270 267 257 251 243 246 239 230 250 256 247
298 261 242 234 228 228 227 231 237 239 235 235 235 244 248 250 250 246 249 250 253 249 245 247 246 247 247 253 256 264 269 270 263 258 253 251 247 245 246 255 270 252 252
310 295 256 245 232 224 219 222 230 234 241 244 244 246 249 244 240 248 246 254 253 246 244 245 245 244 242 242 245 262 265 265 257 251 254 248 249 250 246 248 258 260 242
314 309 291 267 252 234 223 225 232 243 248 250 255 255 258 258 247 245 250 253 253 248 244 241 237 232 241 228 200 194 296 288 240 239 240 247 249 244 245 251 251 245 238
319 319 313 300 274 251 235 229 230 232 239 244 252 257 257 250 247 246 251 251 253 248 247 243 237 232 216 219 215 190 135 217 212 175 228 241 248 252 260 256 245 241 242
314 314 307 300 289 275 260 234 230 223 227 245 254 253 256 252 247 244 250 251 253 251 247 246 243 236 223 203 217 223 233 169 163 161 198 221 214 239 249 242 232 236 238
316 310 309 303 299 278 260 251 244 242 239 247 246 239 243 253 246 244 247 250 252 250 250 248 241 231 227 215 204 191 216 219 214 137 205 239 244 233 231 236 239 241 244
309 307 307 303 299 292 266 249 243 236 236 234 234 234 237 238 233 238 242 243 247 247 247 247 240 232 225 220 222 208 185 176 194 167 192 182 209 226 229 246 263 267 266